Location: Livorno
(43.5500°N, 10.3170°E)
Time: 19:54:10
(UTC+01:00)

Envisat - Pass Details

Date: 30 October 2020
Orbit: 764 x 766 km, 98.1° (Epoch: 05 December)

Event Time Altitude Azimuth Distance (km) Brightness Sun altitude
Rises 19:04:47 0° 224° (SW) 3,222 6.9 -20.9°
Reaches altitude 10° 19:09:49 10° 268° (W) 2,305 6.6 -21.8°
Maximum altitude 19:10:20 10° 273° (W) 2,296 6.6 -21.9°
Drops below altitude 10° 19:10:51 10° 279° (W) 2,307 6.6 -22.0°
Sets 19:15:56 0° 323° (NW) 3,242 6.8 -22.9°
